www.pogodaiklimat.ru

Погода и климат >> Архив погоды >> Пакистан >> Pad Idan


ПОГОДА в Pad Idan

  • Прогноз погоды в Pad Idan
  • Монитор погоды в Pad Idan
  • Климат города

АРХИВ ПОГОДЫ в Pad Idan

Время (UTC), дата Ветер
(напр.,м/с)
 
Видим.   Явления Облачность Т
(С)
Тd
(С)
f
(%)
Тe
(С)
Тes
(С)
Комфортность P
(гПа)
Po
(гПа)
Тmin
(С)
Tmax
(С)
R
(мм)
R24
(мм)
S
(см)
18 12.07 ЮЗ 1 4000 м ясно +31.0 +25.4 72 +45 +45 опасность
перегрева
994.2 1000.0
21 12.07 ЮЗ 1 4000 м ясно +30.0 +24.6 73 +43 +43 опасность
перегрева
993.5 994.0
00 13.07 ЮЗ 1 4000 м ясно +28.0 +23.7 77 +38 +38 очень
душно
992.9 987.6
03 13.07 ЮЗ 1 4000 м ясно +29.5 +23.0 68 +39 +46 очень
душно
993.1 987.8 +27.5
06 13.07 ЮЗ 1 4000 м ясно +33.5 +26.6 67 +50 +75 опасность
перегрева
995.3 1000.0
09 13.07 ЮЗ 1 4000 м 4/0
[Ac trans]
+37.0 +26.4 55 +53 +70 опасность
перегрева
992.7 993.0
12 13.07 ЮЗ 1 4000 м мгла ясно +38.0 +27.2 54 +56 +62 опасность
перегрева
991.5 1000.0 +40.1
15 13.07 ЮЗ 1 4000 м ясно +36.0 +26.4 58 +53 +53 опасность
перегрева
992.0 1000.0
18 13.07 ЮЗ 1 4000 м ясно +33.0 +27.6 73 +52 +52 опасность
перегрева
993.8 1000.0
21 13.07 ЮЗ 1 4000 м ясно +30.0 +25.8 78 +45 +45 опасность
перегрева
993.2 1000.0
00 14.07 ЮЗ 1 4000 м ясно +28.0 +23.7 77 +38 +38 очень
душно
992.6 987.3
03 14.07 ЮЗ 1 4000 м ясно +31.0 +23.9 66 +43 +49 опасность
перегрева
993.4 988.1 +27.1
06 14.07 ЮЗ 1 4000 м 3/0
[Ac trans]
+35.0 +26.1 60 +51 +71 опасность
перегрева
995.9 1000.0
09 14.07 ЮЗ 1 4000 м 3/0
[Ci fib]
+38.5 +27.0 52 +56 +77 опасность
перегрева
993.4 993.0
12 14.07 Ю 1 4000 м ясно +39.0 +26.8 50 +55 +62 опасность
перегрева
991.8 986.8 +40.1
15 14.07 Ю 1 4000 м 3/0
[Ci fib]
+35.0 +26.8 63 +53 +53 опасность
перегрева
992.8 1000.0
18 14.07 ЮВ 1 4000 м ясно +33.0 +26.1 67 +49 +49 опасность
перегрева
993.9 1000.0
21 14.07 ЮВ 1 4000 м ясно +31.0 +24.6 69 +44 +44 опасность
перегрева
993.2 1000.0
00 15.07 ЮВ 1 4000 м ясно +28.5 +24.2 78 +40 +40 очень
душно
992.8 987.7
03 15.07 ЮВ 1 4000 м 3/0
[Ci fib]
+30.5 +24.9 72 +44 +50 опасность
перегрева
993.7 988.6 +28.1
06 15.07 ЮВ 1 4000 м 3/0
[Ci fib]
+35.0 +26.8 63 +53 +74 опасность
перегрева
994.9 995.0
09 15.07 ЮВ 1 4000 м 4/0
[Ci fib]
+38.0 +28.7 59 +60 +82 опасность
перегрева
993.2 1000.0
12 15.07 ЮВ 1 4000 м 4/0
[Ci fib]
+41.0 +28.0 49 +61 +66 опасность
перегрева
992.8 1000.0 +41.5
15 15.07 ЮВ 1 4000 м 4/0
[Ci fib]
+37.0 +26.3 54 +53 +53 опасность
перегрева
993.8 1000.0
18 15.07 ЮЗ 1 4000 м ясно +32.0 +26.5 73 +49 +49 опасность
перегрева
995.6 1000.0
21 15.07 ЮЗ 1 4000 м 6/4 300 м
[Sc As op]
+30.0 +24.5 72 +42 +42 опасность
перегрева
994.2 1000.0
00 16.07 ЮЗ 1 4000 м 8/4 300 м
[Sc As op]
+28.0 +23.7 77 +38 +38 очень
душно
994.0 988.7
03 16.07 В 1 4000 м ясно +29.0 +23.2 71 +39 +46 очень
душно
994.6 989.3 +27.5
06 16.07 ЮЗ 1 4000 м слабая морось 10/5 300 м
[Sc As op]
+29.5 +26.7 85 +46 +48 опасность
перегрева
996.6 1000.0 2
09 16.07 ЮЗ 1 4000 м 10/5 300 м
[Sc As op]
+32.0 +27.9 79 +52 +55 опасность
перегрева
994.6 1000.0
12 16.07 ЮВ 1 4000 м 10/5 1200 м
[Sc As op]
+32.5 +27.0 73 +51 +51 опасность
перегрева
993.4 1000.5 +34.0
15 16.07 штиль 0 4000 м 10/5 300 м
[Sc As op]
+31.0 +25.4 72 +45 +45 опасность
перегрева
994.1 1000.0
18 16.07 штиль 0 4000 м 10/5 1200 м
[Sc As op]
+31.0 +25.4 72 +45 +45 опасность
перегрева
996.7 997.0
21 16.07 штиль 0 4000 м 9/5 1200 м
[Sc As op]
+30.0 +24.3 72 +42 +42 опасность
перегрева
995.9 996.0
00 17.07 штиль 0 4000 м 10/5 300 м
[Sc As op]
+29.0 +24.8 78 +41 +41 опасность
перегрева
995.0 989.9
03 17.07 штиль 0 4000 м 6/3 300 м
[Sc Ci fib]
+30.5 +25.6 75 +45 +49 опасность
перегрева
996.6 991.4 +28.5
06 17.07 ЮВ 1 4000 м 5/3 300 м
[Sc Ci fib]
+35.0 +27.6 66 +55 +71 опасность
перегрева
997.6 1000.0
09 17.07 ЮВ 1 4000 м 5/3 300 м
[Sc Ci fib]
+38.5 +28.5 57 +60 +76 опасность
перегрева
994.7 1000.0
12 17.07 З 1 4000 м 10/5 300 м
[Sc Ac trans]
+39.0 +25.8 47 +53 +54 опасность
перегрева
992.8 1000.0 +40.1
15 17.07 З 1 4000 м 6/4 300 м
[Sc Ac trans]
+35.0 +25.3 57 +49 +49 опасность
перегрева
994.0 1000.0
18 17.07 З 1 4000 м 5/3 300 м
[Sc Ac trans]
+31.0 +23.9 66 +43 +43 опасность
перегрева
996.5 1000.0
21 17.07 З 1 4000 м 5/3 300 м
[Sc Ac trans]
+30.0 +24.5 72 +42 +42 опасность
перегрева
995.6 1000.0
00 18.07 З 1 4000 м 8/4 300 м
[Sc Ac trans]
+28.0 +23.7 77 +38 +38 очень
душно
994.6 989.3
03 18.07 ЮЗ 1 4000 м 9/4 300 м
[Sc Ac trans]
+30.0 +22.8 65 +40 +42 очень
душно
994.9 989.6 +28.1
06 18.07 ЮВ 1 4000 м 9/4 300 м
[Sc Ac trans]
+35.0 +27.6 66 +55 +62 опасность
перегрева
998.1 1000.0
09 18.07 ЮВ 1 4000 м 9/4 300 м
[Sc Ac trans]
+38.0 +28.7 59 +60 +67 опасность
перегрева
995.8 1000.0
12 18.07 Ю 1 4000 м 3/0
[Ci fib]
+36.0 +26.4 58 +53 +58 опасность
перегрева
994.8 1000.0 +40.0
15 18.07 Ю 1 4000 м 3/0
[Ci fib]
+32.0 +25.0 67 +46 +46 опасность
перегрева
996.2 1000.0
18 18.07 СВ 1 4000 м 5/3 300 м
[Sc Ac trans]
+30.0 +25.8 78 +45 +45 опасность
перегрева
997.4 1000.0
21 18.07 штиль 0 4000 м 5/3 300 м
[Sc Ac trans]
+30.0 +25.8 78 +45 +45 опасность
перегрева
996.3 1000.0
00 19.07 штиль 0 4000 м 5/3 300 м
[Sc Ac trans]
+30.0 +25.8 78 +45 +45 опасность
перегрева
996.1 991.1
03 19.07 Ю 1 4000 м 5/3 300 м
[Sc Ac trans]
+30.5 +26.4 79 +47 +50 опасность
перегрева
996.9 991.9 +29.1
06 19.07 ЮВ 1 4000 м 5/3 300 м
[Sc Ac trans]
+36.0 +27.2 61 +55 +69 опасность
перегрева
998.6 1000.0
09 19.07 ЮВ 1 4000 м 5/3 300 м
[Sc Ac trans]
+39.0 +28.3 55 +60 +74 опасность
перегрева
995.9 1000.0
12 19.07 ЮЗ 1 4000 м 5/3 1200 м
[Sc Ac trans]
+39.0 +28.3 55 +60 +63 опасность
перегрева
994.3 994.0 +40.0

 

Местоположение метеостанции Pad Idan (Пакистан): широта 26.85 долгота 68.13 высота над уровнем моря 47 м.

В архиве по умолчанию представлена погода в Pad Idan за последнюю неделю. Архивные данные за месяц целиком и за предыдущие месяцы, начиная с января 2011 года, Вы можете получить, выбрав интересующий диапазон дат из раскрывающегося списка и нажав кнопку "Ввод!".


*Определитесь, кто Вы:
робот инопланетянин человек

Внимание! Время в таблицах - всемирное. Для получения местного времени необходимо прибавить поправку, которая в Pad Idan равна 5 ч.

Смотрите также архив погоды в соседних городах и на ближайших метеорологических станциях:

Погода в Nawabshah (Пакистан) (71 км)
Погода в Rohri (Пакистан) (119 км)
Погода в Jacobabad (Пакистан) (165 км)
Погода в Hyderabad (Пакистан) (166 км)
Погода в Khuzdar (Пакистан) (184 км)
Погода в Sakrand (Пакистан) (192 км)
Погода в Chhor (Пакистан) (221 км)
Погода в Karachi (Пакистан) (239 км)
Погода в Badin (Пакистан) (259 км)
Погода в Jaisalmer (Rajasthan, Индия) (277 км)

Пояснения к столбцам:

Ветер - указаны скорость ветра в м/с - средняя за 10 мин, порывы в срок и между сроками (в фигурных скобках) и направление, откуда дует ветер: С - северный, СВ - северо-восточный, В - восточный, ЮВ - юго-восточный, Ю - южный, ЮЗ - юго-западный, З - западный, СЗ - северо-западный.
Видимость - горизонтальная дальность видимости в метрах или километрах. При видимости от 1 до 10 км при отсутствии осадков обычно наблюдается дымка, при ухудшении видимости до 1 км и менее - туман. В сухую погоду видимость может ухудшаться дымом, пылью или мглою.
Явления - указаны атмосферные явления, наблюдавшиеся в срок или в последний час перед сроком; фигурными скобками обозначены явления, наблюдавшиеся между сроками (за 1-3 часа до срока); квадратными скобками обозначены град или гололедные отложения с указанием их диаметра в мм.
Облачность - указаны через наклонную черту общая и нижняя облачность в баллах и высота нижней границы облаков в метрах; квадратными скобками обозначены формы облаков: Ci - перистые, Cs - перисто-слоистые, Cc - перисто-кучевые, Ac - высококучевые, As - высокослоистые, Sc - слоисто-кучевые, Ns - слоисто-дождевые, Cu - кучевые, Cb - кучево-дождевые. Подробнее классификацию облаков см. в Атласе облаков (PDF).
T - Температура воздуха - температура, измеренная на высоте 2 м над землей.
Td - Температура точки росы - температура, при понижении до которой содержащийся в воздухе водяной пар достигнет насыщения.
f - Относительная влажность воздуха - влажноcть воздуха, измеренная на высоте 2 м над землей.
Te - Эффективная температура - температура, которую ощущает одетый по сезону человек в тени. Характеристика душности погоды. При расчете учитывается влияние влажности воздуха и скорости ветра на теплоощущения человека.
Tes - Эффективная температура на солнце - температура, которую ощущает человек, с поправкой на солнечный нагрев. Характеристика знойности погоды. Зависит от высоты солнца над горизонтом, облачности и скорости ветра. Ночью, в пасмурную погоду, а также при ветре 12 м/с и более поправка равна нулю.
P - Атмосферное давление - приведенное к уровню моря атмосферное давление.
Po - Атмосферное давление - измеренное на уровне метеостанции атмосферное давление.
Tmin - Минимальная температура - минимум температуры воздуха на высоте 2 м над землей.
Tmax - Максимальная температура - максимум температуры воздуха на высоте 2 м над землей.
R - Количество осадков - Количество выпавших осадков за период времени, мм. При наведении курсора мыши на число - период времени, за который выпало указанное количество осадков.
R24 - Количество осадков - Количество выпавших осадков за 24 часа, мм.
S - Снежный покров - Высота снежного покрова, см. При наведении курсора мыши на число - состояние снежного покрова и степень покрытия местности в баллах.